Current Version              Previous Version:    01  02  03  04  05  06  07  08  09  10  11  12  13  14  15  16  17  18  19  20  21  22  23  24  25  26  27  28  29  30  
   31  32  33  34  35  36  37  38  39  40  41  42  43  44  45  46  47  48  49  50  51  52  53  54  55  56  57  58  59  60  

[Printable]
469
ASUS44 KFWD 172103
RWRTX
NORTH TEXAS HOURLY WEATHER ROUNDUP
NATIONAL WEATHER SERVICE FORT WORTH TX
400 PM CDT WED SEP 17 2014

NOTE: "FAIR" INDICATES FEW OR NO CLOUDS BELOW 12,000 FEET WITH NO
SIGNIFICANT WEATHER AND/OR OBSTRUCTIONS TO VISIBILITY.

TXZ118-119-172200-
DALLAS/FORT WORTH METROPLEX

CITY           SKY/WX    TMP DP  RH WIND       PRES   REMARKS
DFW AIRPORT    PTSUNNY   95  65  37 SE9       29.86F HX  97
DALLAS LOVE    PTSUNNY   89  68  49 E5        29.86F HX  93
FTW MEACHAM    PTSUNNY   94  66  39 E8        29.85F HX  97
DAL-EXECUTIVE  TSTM      79  71  76 NE10      29.88S
FTW-ALLIANCE   PTSUNNY   92  64  39 SE9       29.85F HX  93
FTW-NAS-JRB    PTSUNNY   94  65  38 S8        29.90F HX  96
FTW-SPINKS     MOSUNNY   93  66  40 CALM      29.88F HX  96
ARLINGTON      PTSUNNY   90  67  46 S10       29.87F HX  93
GRAND PRAIRIE  SUNNY     93  64  38 MISG      29.87F HX  95
MESQUITE       TSTM      82  72  69 E5        29.88F
LANCASTER      PTSUNNY   89  67  48 E8G17     29.88F THUNDER HX  91
$$

TXZ091>094-102>105-117-120-121-131>134-172200-
NORTH CENTRAL TEXAS

CITY           SKY/WX    TMP DP  RH WIND       PRES   REMARKS
SHRMAN/DENISON MOSUNNY   91  65  42 CALM      29.89F HX  93
GAINESVILLE    MOSUNNY   89  69  50 SE6       29.90F HX  93
BOWIE          PTSUNNY   92  67  44 SE7       29.88F HX  95
BRIDGEPORT     PTSUNNY   91  61  36 SE6       29.89F HX  90
DECATUR        PTSUNNY   89  67  49 NE6       29.88F HX  91
DENTON         LGT RAIN  87  71  58 NW6       29.86F HX  93
MCKINNEY       PTSUNNY   91  67  44 SE6       29.87F HX  94
GREENVILLE     MOSUNNY   88  68  51 W5        29.88F HX  91
ROCKWALL       MOSUNNY   92  69  46 S3        29.86F HX  96
TERRELL        SUNNY     92  66  42 SE7       29.88F HX  94
WAXAHACHIE     MOSUNNY   90  63  40 CALM      29.88F HX  91
CLEBURNE       MOSUNNY   90  68  48 CALM      29.89F HX  93
GRANBURY       PTSUNNY   91  64  40 E6        29.88F HX  92
$$

TXZ083>090-098>101-113>116-127>130-139>142-154-155-172200-
WESTERN NORTH TEXAS

CITY           SKY/WX    TMP DP  RH WIND       PRES   REMARKS
WICHITA FALLS  MOSUNNY   91  68  46 CALM      29.87F HX  95
WF-KICKAPOO    PTSUNNY   91  64  40 CALM      29.88F HX  93
VERNON         CLOUDY    91  64  40 SW8       29.91F HX  92
ABILENE        LGT RAIN  78  72  81 CALM      29.95R
ABILENE-DYESS  PTSUNNY   78  69  73 NE8       29.92F
BRECKENRIDGE   CLOUDY    91  60  35 E3        29.88F HX  91
MINERAL WELLS  CLOUDY    89  67  47 NE7       29.87F HX  92
STEPHENVILLE   PTSUNNY   91  64  40 SE8       29.91F HX  92
COMANCHE       PTSUNNY   90  63  40 E7        29.89F HX  90
BROWNWOOD      PTSUNNY   91  64  40 SE9       29.88F HX  93
COLEMAN        PTSUNNY   86  66  51 N16       29.90F
BRADY          MOSUNNY   91  66  43 S6        29.90F HX  94
$$

TXZ143>147-156>162-174-175-172200-
CENTRAL TEXAS

CITY           SKY/WX    TMP DP  RH WIND       PRES   REMARKS
WACO           MOSUNNY   94  69  44 CALM      29.86F HX  99
WACO-TSTC      MOSUNNY   93  68  43 S6        29.86F HX  97
WACO-MCGREGOR  SUNNY     93  70  46 E7        29.86F HX  99
HILLSBORO      MOSUNNY   91  69  47 SE7       29.88F HX  95
CORSICANA      MOSUNNY   89  71  55 E9        29.89F HX  95
MEXIA          PTSUNNY   92  71  50 E5        29.86F HX  98
HEARNE           N/A     91  71  51 SE3       29.86F HX  97
CAMERON        MOSUNNY   92  72  51 S6        29.86F HX  99
TEMPLE         PTSUNNY   91  66  43 S5        29.86F HX  94
KILLEEN        PTSUNNY   91  68  46 E8        29.87F HX  95
KILLEEN-SKYLRK SUNNY     91  66  43 SE8       29.86F HX  94
FORT HOOD      PTSUNNY   96  68  39 VRB5      29.86F HX 101
HAMILTON       MOSUNNY   92  64  38 E9        29.89F HX  93
LAMPASAS       MOSUNNY   95  71  46 SE3       29.87F HX 102
$$

TXZ095>097-106>112-122>126-135>138-148>153-164>167-172200-
EAST TEXAS

CITY           SKY/WX    TMP DP  RH WIND       PRES   REMARKS
PARIS          MOSUNNY   90  66  45 CALM      29.90F HX  92
SULPHUR SPRNGS LGT RAIN  84  73  67 N6        29.90F HX  90
MOUNT PLEASANT MOSUNNY   89  69  51 CALM      29.90F HX  93
GILMER         MOSUNNY   90  72  55 CALM      29.90F HX  96
MINEOLA        PTSUNNY   90  72  55 SE5       29.89F HX  96
TYLER          PTSUNNY   88  71  57 SE9       29.89F HX  94
LONGVIEW       MOSUNNY   91  69  48 MISG      29.88F HX  96
MARSHALL       MOSUNNY   94  71  46 S3        29.90F HX 100
ATHENS         MOSUNNY   90  70  51 S5        29.88F HX  95
PALESTINE      SUNNY     89  72  57 S5        29.90F HX  95
JACKSONVILLE   MOSUNNY   90  68  48 SE5       29.92F HX  93
HENDERSON      PTSUNNY   88  71  58 SE14      29.91S THUNDER HX  93
NACOGDOCHES    MOSUNNY   90  70  51 E5        29.89F HX  95
LUFKIN         SUNNY     90  73  57 E5        29.89F HX  98
$$

SUPPLEMENTAL OBSERVATIONS (CENTRAL)

CITY           SKY/WX    TMP DP  RH WIND       PRES   REMARKS
$$

SUPPLEMENTAL OBSERVATIONS (WEST)

CITY           SKY/WX    TMP DP  RH WIND       PRES   REMARKS
$$

SUPPLEMENTAL OBSERVATIONS (EAST)

CITY           SKY/WX    TMP DP  RH WIND       PRES   REMARKS
$$

SUPPLEMENTAL OBSERVATIONS ARE A COLLECTION OF AUTOMATED INSTRUMENTS
THAT ARE MAINTAINED BY A VARIETY OF FEDERAL AND STATE AGENCIES.
CERTAIN ELEMENTS...SUCH AS HUMIDITY VALUES AND SUSTAINED WIND
SPEEDS...MAY BE APPROXIMATED.